Regional Weather Roundup
Issued by NWS

Home | Current Version | Previous Version | Text Only | Print | Product List | Glossary Off
Versions: 1 2 3 4 5 6 7 8 9 10 11 12 13 14 15 16 17 18 19 20 21 22 23 24 25 26 27 28 29 30 31 32 33 34 35 36 37 38 39 40 41 42 43 44 45 46 47 48 49 50

389
ASUS45 KBOU 272107
RWRCO

WEATHER ROUNDUP FOR COLORADO
NATIONAL WEATHER SERVICE DENVER/BOULDER CO
300 PM MDT WED JUL 27 2016

NOTE: "FAIR" INDICATES FEW OR NO CLOUDS BELOW 12000 FEET WITH NO
SIGNIFICANT WEATHER AND/OR OBSTRUCTIONS TO VISIBILITY.

COZ001>005-013-030-031-272200-
...NORTHWEST COLORADO...

CITY           SKY/WX    TMP DP  RH WIND       PRES   REMARKS
CRAIG          FAIR      93  19   7 W12G21    30.23F
HAYDEN         FAIR      88  27  11 NW13G22   30.26F
MEEKER         FAIR      91  31  11 CALM      30.24F
MOUNT WERNER   NOT AVBL
STEAMBOAT SPGS FAIR      86  32  14 SW13      30.28F
WALDEN         FAIR      81  30  16 SW12G22   30.39F
$$

COZ006>008-011-272200-
...WEST CENTRAL VALLEYS...

CITY           SKY/WX    TMP DP  RH WIND       PRES   REMARKS
GRAND JUNCTION FAIR      98  38  12 W9        30.10F
MONTROSE       FAIR      93  31  11 NW7       30.21F
EAGLE          SUNNY     90  30  12 S8        30.25F
RIFLE          FAIR      97  33  10 W8G17     30.16F
DELTA          NOT AVBL
NUCLA          NOT AVBL
$$

COZ017>023-064>068-272200-
...SOUTHWEST COLORADO...

CITY           SKY/WX    TMP DP  RH WIND       PRES   REMARKS
DURANGO        FAIR      90  35  14 E3        30.23F
CORTEZ         FAIR      96  38  13 MISG      30.19F
PAGOSA SPRINGS FAIR      88  17   7 NE5       30.32F
TELLURIDE      FAIR      80  33  17 N5        30.51F
WOLF CREEK PAS FAIR      63  21  20 N17G25    30.74S
$$

COZ009-010-012-014-032>034-037-058>063-272200-
...CENTRAL COLORADO...

CITY           SKY/WX    TMP DP  RH WIND       PRES   REMARKS
ASPEN          FAIR      86  24  10 N12       30.36F
BUENA VISTA    FAIR      87  18   8 N9G17     30.34S
COPPER MTN     FAIR      68  21  17 W20G31    30.74S
BERTHOUD PASS  FAIR      57  43  58 N26G38    30.76R
COTTONWOOD PAS FAIR      79   5   6 CALM      30.53S
GUNNISON       FAIR      84  27  12 NW10G18   30.37F
KREMMLING      FAIR      90  18   7 W13G18    30.33F
LEADVILLE      FAIR      74  18  12 MISG      30.53F
MONARCH PASS   FAIR      70  14  11 MISG      30.82S
SALIDA         FAIR      89  22   8 CALM      30.37F
SUNLIGHT       FAIR      73  32  21 MISG      30.68S
WILKERSON PASS FAIR      70  14  11 CALM      30.69R
$$

COZ069>075-272200-
...SAN LUIS VALLEY/SANGRE DE CRISTO MOUNTAINS...

CITY           SKY/WX    TMP DP  RH WIND       PRES   REMARKS
ALAMOSA        FAIR      87  29  12 NE10G22   30.32F
LA VETA PASS   FAIR      79  36  21 NE7G18    30.56S
SAGUACHE       FAIR      82  32  16 NW7       30.34S
$$

COZ035-036-038>040-272200-
...NORTHERN COLORADO FRONT RANGE...

CITY           SKY/WX    TMP DP  RH WIND       PRES   REMARKS
DENVER INTL AP FAIR      89  49  25 E9        30.16F
DMNS CITY PARK   N/A     91  48  22 E3        30.15F
AURORA         MOSUNNY   89  45  21 NE9       30.18F
FRONT RANGE AP MOSUNNY   91  50  24 NE7       30.18F
ERIE MUNI ARPT FAIR      88  46  23 CALM      30.14F
BOULDER MUN AP FAIR      86  52  30 E5        30.16F
CENTENNIAL     FAIR      88  42  20 VRB3      30.19F
BROOMFIELD     MOSUNNY   86  50  28 VRB3      30.20S
LONGMONT       NOT AVBL
$$

COZ041-046-047-076>085-087-088-272200-
...PIKES PEAK/PALMER DIVIDE AND SOUTHERN FOOTHILLS...

CITY           SKY/WX    TMP DP  RH WIND       PRES   REMARKS
COLO. SPRINGS  FAIR      89  39  17 NE16G23   30.22F
A. F. ACADEMY  MOSUNNY   88  35  15 E10       30.23F
SCHRIEVER AFB  NOT AVBL
ELLICOTT       FAIR     N/A N/A N/A NE9       30.21F
FALCON         NOT AVBL
FORT CARSON    FAIR      90  40  17 N5        30.20S
LIMON          FAIR      93  42  17 VRB7      30.16F
MONUMENT HILL  FAIR      82  37  20 NE7G20    30.32S
TRINIDAD       NOT AVBL
$$

COZ042>045-048>051-090-091-272200-
...NORTHEAST COLORADO...

CITY           SKY/WX    TMP DP  RH WIND       PRES   REMARKS
GREELEY ARPT   FAIR      90  57  33 SE10      30.13F
AKRON          FAIR      86  61  42 SE10      30.13F
BURLINGTON     FAIR      87  59  38 E10       30.12F
WRAY           FAIR      91  55  29 SE10      30.08
STERLING       NOT AVBL
HOLYOKE        NOT AVBL
FORT MORGAN    NOT AVBL
$$

COZ086-089-092>099-272200-
...SOUTHEAST COLORADO...

CITY           SKY/WX    TMP DP  RH WIND       PRES   REMARKS
PUEBLO         FAIR      95  46  18 S8G20     30.09F
LA JUNTA       FAIR      93  58  30 VRB5      30.08F
LAMAR          FAIR      92  66  42 NE8       30.03F
SPRINGFIELD      N/A     92  53  26 SE7       30.07F
$$




USA.gov is the U.S. government's official web portal to all federal, state and local government web resources and services.